sat.trackr.live / text

‹ back to catalog

LEMUR-2-SIERRINI

NORAD 60579 · 2024-149DR

PAYLOAD ACTIVE UNKNOWN

§ Identity

Operator
Country
US
Launch date
2024-08-16
Launch site
AFWTR
Launch vehicle
Mass (kg)
RCS (m²)

Purposes: earth_obs

External: N2YO · Heavens-Above · Gunter

§ Orbital elements

Epoch: 2026-05-24T23:15:03.788640Z

Period
95.34 min
Inclination
97.6839°
Eccentricity
0.0003865
Mean motion
15.10371274 rev/d
Perigee alt
532.4 km
Apogee alt
537.7 km
Semi-major
6,913.2 km
B*
6.5971e-4
RAAN
227.4688°
Arg perigee
244.0848°
Mean anomaly
115.9983°
Rev number
9,695

§ Raw data

LEMUR-2-SIERRINI1 60579U 24149DR  26144.96879385  .00010773  00000+0  65971-3 0  99972 60579  97.6839 227.4688 0003865 244.0848 115.9983 15.10371274 96956

JSON: /api/v1/satellites/60579 · /tle

For live sub-satellite position, see the globe view (requires WebGL).

§ Visibility from observer

Set your observer location to see the next 7 days of passes ≥ 10°. The values pass through the URL so the page stays shareable.

No JS? Fill the form by hand. The geolocation button needs JavaScript.

§ Radio — SatNOGS DB

ModeDescriptionDownlinkUplink
BPSK Mode U - Transmitter 400.581 MHz

1 transmitter · refreshed weekly from db.satnogs.org